SCP
0 0 0 0 0 0 0 0 -0 0 0 -0 -0 0 -0 -0 -0 -0 0 0 0 0 -0 -0 -0 -0 -0 -0 -0 -0 -0 -0 -0 0 0 0 0 -0 -0 -0 -0 -0 -0 -0 -0 -0 -0 -0 0
0 0 -0 -0 -0 0 0 0 0 -0 -0 -0 0 0 0 0 -0 0 0 0 0 -0 -0 -0 -0 -0 -0 -0 -0 -0 -0 -0 -0 -0 -0 0 0 -0 0 0 0 -0 -0 -0 -0 -0 -0 0 0
0 0 -0 -0 0 0 0 0 0 -0 -0 -0 -0 -0 -0 -0 -0 -0 0 -0 -0 -0 -0 -0 -0 -0 -0 -0 -0 -0 -0 -0 -0 -0 -0 -0 -0 -0 0 0 0 0 0 0 -0 -0 -0 0 0
-0 -0 -0 0 0 0 0 0 -0 0 -0 -0 -0 0 0 -0 -0 -0 -0 0 0 -0 -0 -0 -0 -0 -0 -0 -0 -0 -0 -0 -0 -0 -0 -0 -0 -0 -0 0 0 0 0 0 0 0 0 0 0
-0 -0 0 0 0 0 0 0 0 0 0 0 0 0 0 0 0 -0 0 0 0 0 -0 -0 0 -0 -0 -0 -0 -0 -0 -0 0 0 -0 -0 -0 -0 0 0 0 0 0 0 0 0 0 0 0
0 0 0 0 0 0 0 0 0 0 0 0 0 -0 0 0 -0 0 0 0 0 0 0 -0 -0 0 -0 -0 -0 -0 -0 -0 -0 -0 0 0 0 -0 0 0 0 0 0 0 0 0 0 0 0
0 0 0 0 0 0 0 0 0 0 0 0 0 0 0 -0 -0 0 0 0 0 0 0 0 0 0 -0 -0 0 0 0 0 0 0 0 0 0 0 0 0 0 0 0 0 0 0 0 0 0
0 0 0 0 0 0 0 0 0 0 0 0 0 0 0 -0 -0 0 0 0 -0 0 0 0 0 -0 -0 0 0 -0 0 0 0 0 0 0 0 0 0 0 0 0 0 0 0 0 0 0 0
0 0 0 0 0 0 0 0 0 0 0 0 0 0 0 0 0 0 0 0 0 0 0 0 0 0 0 0 0 0 0 0 0 0 0 0 0 0 0 0 0 0 0 0 0 0 0 0 0
0 0 0 0 0 0 0 0 0 0 0 0 0 0 0 0 0 0 0 0 0 0 0 0 0 0 0 0 0 0 0 0 0 0 0 0 0 0 0 0 0 0 0 0 0 0 0 0 0
0 0 0 0 0 0 0 0 0 0 0 0 0 0 0 0 0 0 0 0 0 0 0 0 0 0 0 0 0 0 0 0 0 0 0 0 0 0 0 0 0 0 0 0 0 0 0 0 0
0 0 0 0 0 0 0 0 0 0 0 0 0 0 0 0 0 0 0 0 0 0 0 0 0 0 0 0 0 0 0 0 0 0 0 0 0 0 0 0 0 0 0 0 0 0 0 0 0
0 0 0 0 0 0 0 0 0 0 0 0 0 0 0 0 0 0 0 0 0 0 0 0 0 0 0 0 0 0 0 0 0 0 0 0 0 0 0 0 0 0 0 0 0 0 0 0 0
0 0 0 0 0 0 0 0 0 0 0 0 0 0 0 0 0 0 0 0 0 0 0 0 0 0 0 0 0 0 0 0 0 0 0 0 0 0 0 0 0 0 0 0 0 0 0 0 0
0 0 0 0 0 0 0 0 0 0 0 0 0 0 0 0 0 0 0 0 0 0 0 0 0 0 0 0 0 0 0 0 0 0 0 0 0 0 0 0 0 0 0 0 0 0 0 0 0
0 0 0 0 0 0 0 0 0 0 0 0 0 0 0 0 0 0 0 0 0 0 0 0 0 0 0 0 0 0 0 0 0 0 0 0 0 0 0 0 0 0 0 0 0 0 0 0 0
0 0 0 0 0 0 0 0 0 0 0 0 0 0 0 0 0 0 0 0 0 0 0 0 0 0 0 0 0 0 0 0 0 0 0 0 0 0 0 0 0 0 0 0 0 0 0 0 0
0 0 0 0 0 0 0 0 0 0 0 0 0 0 0 0 0 0 0 0 0 0 0 0 0 0 0 0 0 0 0 0 0 0 0 0 0 0 0 0 0 0 0 0 0 0 0 0 0
0 0 0 0 0 0 0 0 0 0 0 0 0 0 0 0 0 0 0 0 0 0 0 0 0 0 0 0 0 0 0 0 0 0 0 0 0 0 0 0 0 0 0 0 0 0 0 0 0
0 0 0 0 0 0 0 0 0 0 0 0 0 0 0 0 0 0 0 0 0 0 0 0 0 0 0 0 0 0 0 0 0 0 0 0 0 0 0 0 0 0 0 0 0 0 0 0 0
0 0 0 0 0 0 0 0 0 0 0 0 0 0 0 0 0 0 0 0 0 0 0 0 0 0 0 0 0 0 0 0 0 0 0 0 0 0 0 0 0 0 0 0 0 0 0 0 0
0 0 0 0 0 0 0 0 0 0 0 0 0 0 0 0 0 0 0 0 0 0 0 0 0 0 0 0 0 0 0 0 0 0 0 0 0 0 0 0 0 0 0 0 0 0 0 0 0
0 0 0 0 0 0 0 0 0 0 0 0 0 0 0 0 0 0 0 0 0 0 0 0 0 0 0 0 0 0 0 0 0 0 0 0 0 0 0 0 0 0 0 0 0 0 0 0 0
0 0 0 0 0 0 0 0 0 0 0 0 0 0 0 0 0 0 0 0 0 0 0 0 0 0 0 0 0 0 0 0 0 0 0 0 0 0 0 0 0 0 0 0 0 0 0 0 0
0 0 0 0 0 0 0 0 0 0 0 0 0 0 0 0 0 0 0 0 0 0 0 0 0 0 0 0 0 0 0 0 0 0 0 0 0 0 0 0 0 0 0 0 0 0 0 0 0
0 0 0 0 0 0 0 0 0 0 0 0 0 0 0 0 0 0 0 0 0 0 0 0 0 0 0 0 0 0 0 0 0 0 0 0 0 0 0 0 0 0 0 0 0 0 0 0 0
0 0 0 0 0 0 0 0 0 0 0 0 0 0 0 0 0 0 0 0 0 0 0 0 0 0 0 0 0 0 0 0 0 0 0 0 0 0 0 0 0 0 0 0 0 0 0 0 0
0 0 0 0 0 0 0 0 0 0 0 0 0 0 0 0 0 0 0 0 0 0 0 0 0 0 0 0 0 0 0 0 0 0 0 0 0 0 0 0 0 0 0 0 0 0 0 0 0
0 0 0 0 0 0 0 0 0 0 0 0 0 0 0 0 0 0 0 0 0 0 0 0 0 0 0 0 0 0 0 0 0 0 0 0 0 0 0 0 0 0 0 0 0 0 0 0 0
0 0 0 0 0 0 0 0 0 0 0 0 0 0 0 0 0 0 0 0 0 0 0 0 0 0 0 0 0 0 0 0 0 0 0 0 0 0 0 0 0 0 0 0 0 0 0 0 0
Wind_Speed_500mb
5 1 2 2 6 3 8 8 3 5 4 3 2 4 14 11 10 8 5 4 3 16 38 34 33 30 30 25 21 19 17 14 8 5 5 6 6 2 3 8 13 15 17 14 13 12 11 11 10
3 4 4 0 4 10 11 4 7 5 4 2 3 1 4 16 9 6 7 5 7 14 35 35 32 30 28 27 23 21 18 12 7 4 3 3 3 3 7 10 11 13 15 14 13 12 11 9 7
3 4 1 1 1 8 9 5 4 3 1 2 3 4 5 7 10 6 9 8 9 13 30 32 26 29 29 27 25 23 19 15 11 8 5 4 6 8 8 6 11 15 15 14 12 11 10 9 8
1 2 5 4 13 6 6 5 0 4 4 1 1 10 8 9 5 6 9 11 10 11 23 30 28 23 24 25 23 22 20 17 14 9 7 6 1 3 5 9 14 17 19 13 9 8 9 9 9
2 1 3 7 8 6 2 0 3 5 3 4 1 8 8 10 8 8 9 9 10 12 15 23 28 26 25 22 20 19 19 17 14 11 9 6 9 7 6 10 14 18 21 6 4 7 9 9 8
0 1 6 11 9 7 4 2 5 5 3 4 5 8 8 12 6 5 5 5 7 11 13 16 24 28 25 24 22 22 21 20 18 14 10 11 10 14 3 9 16 17 16 8 4 6 8 7 4
2 2 1 7 12 8 6 2 6 5 7 7 2 7 13 8 6 2 3 5 6 11 14 16 20 27 28 26 28 24 22 21 19 17 14 15 13 15 14 14 17 15 14 8 7 9 8 6 2
5 2 8 6 13 9 5 5 4 2 6 2 3 5 8 10 5 7 11 11 12 13 17 19 19 23 29 28 30 30 27 23 21 19 18 22 19 16 18 17 18 17 12 10 9 8 7 5 3
4 4 7 10 12 9 6 9 6 2 2 4 4 2 9 18 14 13 15 14 13 16 17 19 22 24 26 32 31 33 30 27 25 24 23 24 22 18 19 19 23 19 16 12 10 12 11 9 5
2 5 5 5 7 10 8 4 2 6 1 8 7 3 9 10 10 15 18 20 17 19 23 25 26 27 28 28 33 31 32 31 28 28 27 26 26 23 20 22 16 18 20 20 19 14 14 13 11
2 3 5 7 9 6 5 5 4 4 5 5 1 3 2 6 6 6 8 11 14 18 25 31 33 33 33 30 25 25 28 29 28 28 28 27 29 26 23 22 21 18 21 22 25 26 20 17 16
5 3 4 3 9 9 6 2 3 4 2 7 10 9 7 5 5 5 3 2 5 8 13 20 24 31 37 35 26 20 20 21 22 23 25 25 24 21 25 22 21 21 22 22 25 20 22 25 20
5 3 6 8 11 10 10 13 4 4 8 8 8 8 5 2 2 3 5 7 9 12 15 18 22 25 32 37 28 19 16 18 24 25 25 27 25 25 26 20 22 22 24 23 25 25 25 28 27
3 6 12 13 11 10 12 6 11 8 15 11 9 4 1 4 5 7 7 9 12 15 16 16 16 20 25 35 32 28 25 21 18 19 24 20 30 29 25 24 20 20 22 21 22 24 25 25 28
1 9 13 16 5 9 16 8 13 12 14 8 4 2 4 5 5 7 6 5 5 4 4 3 6 15 29 40 39 30 23 16 11 8 8 18 21 19 11 12 19 20 26 31 26 26 22 29 33
4 5 9 6 7 6 15 8 15 7 12 5 3 2 4 6 6 4 3 7 9 9 9 12 14 17 30 37 36 30 23 16 10 4 4 8 12 20 24 25 28 29 28 25 14 21 23 27 29
6 12 12 6 4 5 14 4 15 5 11 7 3 1 2 0 1 6 11 14 16 18 22 23 26 30 33 35 34 28 20 14 10 5 3 3 5 8 9 9 13 10 5 10 17 17 22 26 31
14 12 11 16 7 8 12 17 16 8 11 10 8 6 5 6 10 15 19 21 25 30 36 38 39 41 37 37 35 32 25 18 13 6 3 3 7 9 9 13 16 17 18 20 18 24 28 31 34
5 10 15 7 5 9 24 26 22 18 14 16 14 12 11 12 17 20 23 26 31 34 38 44 43 44 39 37 31 28 25 20 13 4 2 1 6 5 11 15 14 15 17 20 25 26 31 37 40
16 20 27 12 7 9 20 29 20 20 15 16 19 19 19 22 27 31 34 36 37 39 40 41 39 39 34 31 28 25 21 22 22 21 15 9 2 3 7 7 7 9 13 16 18 20 20 24 26
27 30 23 20 5 9 11 28 26 8 11 15 18 21 22 25 34 40 44 47 49 48 48 47 47 45 45 43 42 40 38 34 30 26 22 18 14 9 8 8 9 9 9 8 10 11 13 15 19
33 26 21 16 9 19 6 13 9 16 18 23 28 30 31 32 35 40 45 50 51 49 47 46 46 43 43 39 36 32 31 32 31 26 23 19 17 14 13 14 14 14 14 15 18 21 22 23 25
11 10 19 14 21 11 17 12 8 12 24 26 41 42 41 41 45 47 49 50 47 43 40 38 36 35 34 34 32 30 29 29 28 24 18 14 11 10 11 11 11 14 17 21 21 21 23 25 26
27 14 10 6 5 17 30 26 16 15 20 35 47 48 46 43 45 47 48 46 43 41 37 34 30 31 31 29 28 23 22 24 22 19 13 12 10 9 10 12 15 16 17 19 21 23 23 24 25
13 20 8 11 12 15 6 19 24 16 16 30 55 63 56 51 51 52 50 47 42 38 35 31 28 28 28 24 23 21 20 22 19 15 12 10 9 8 10 12 14 18 20 20 22 24 26 28 29
37 36 12 14 12 6 3 16 10 2 16 9 47 57 56 53 56 55 51 46 41 37 32 29 27 26 25 23 21 22 19 17 13 12 11 8 8 10 13 14 16 18 20 23 25 28 30 32 34
19 22 9 9 1 4 11 10 9 11 12 18 40 54 57 58 62 62 57 52 45 39 34 30 27 25 26 25 23 21 19 14 10 9 6 5 7 9 13 17 20 21 23 25 28 31 33 36 39
13 26 11 11 10 12 10 12 16 22 30 26 39 60 62 63 67 63 61 55 47 42 39 36 34 30 30 30 25 21 16 12 8 3 3 5 9 13 16 20 23 26 29 33 34 37 40 42 45
12 15 11 7 8 8 7 11 14 26 37 40 49 63 70 68 70 72 67 58 49 47 44 41 40 38 34 31 27 21 17 13 9 4 2 7 11 16 21 25 28 32 34 38 40 44 48 52 55
25 18 28 15 14 10 5 12 8 9 20 40 44 55 63 67 75 77 72 66 59 54 50 48 45 41 38 34 31 26 21 16 10 7 6 10 16 21 26 31 33 34 37 40 45 48 52 57 61
Wind_Direction_500mb
332 350 119 91 210 179 114 106 352 146 167 59 68 343 47 33 17 46 11 119 59 184 187 186 174 182 177 183 183 183 177 172 166 134 111 112 124 160 28 5 0 9 20 23 26 26 33 30 36
52 95 80 155 217 154 113 105 131 77 63 98 115 100 84 70 46 64 51 79 83 163 184 188 179 180 178 184 187 188 193 204 209 202 180 160 165 266 320 340 351 0 4 3 5 5 9 10 8
91 93 229 95 117 120 127 147 97 91 128 216 149 57 42 46 40 55 45 93 98 149 181 191 193 181 179 187 191 197 204 209 209 211 216 228 250 272 295 340 348 347 349 345 344 345 349 347 342
77 27 67 251 120 98 88 101 161 163 145 115 135 111 77 50 62 52 75 90 98 141 176 190 198 190 186 196 200 203 208 210 208 208 232 259 296 310 307 331 339 338 333 322 321 329 335 342 335
53 185 159 133 118 119 181 236 238 175 131 114 323 94 83 32 86 92 103 95 101 141 166 190 200 204 201 204 211 212 214 217 219 224 242 236 262 245 287 332 338 338 344 337 322 328 337 348 337
265 302 205 185 154 156 183 294 218 169 97 108 110 121 87 65 99 102 117 124 116 148 163 180 199 207 212 202 211 218 225 228 227 234 241 217 275 330 329 339 338 346 1 15 3 335 339 344 339
87 253 148 146 157 176 149 248 203 119 141 100 93 157 142 46 23 265 210 194 171 165 173 180 192 206 214 211 207 222 229 232 240 237 234 220 251 294 320 325 329 327 350 8 351 342 346 336 326
99 102 147 177 186 166 134 181 125 61 99 84 98 153 168 264 331 252 230 210 205 193 187 190 198 204 211 218 216 214 227 233 239 249 241 222 239 276 301 306 311 305 313 353 354 348 336 328 300
99 209 186 181 177 155 158 187 159 236 204 66 71 154 276 300 289 247 228 219 217 218 216 216 213 208 214 213 223 218 219 228 235 243 245 239 245 271 291 287 299 287 286 307 336 343 334 322 292
228 245 202 151 161 163 167 229 87 207 282 153 132 3 318 303 258 228 217 216 229 236 236 234 234 231 220 218 218 218 222 226 233 243 246 247 248 260 265 286 308 321 325 327 322 315 332 329 313
153 262 164 185 181 165 201 262 161 229 185 73 346 269 159 90 118 165 195 222 238 244 247 249 249 244 236 221 219 220 220 228 237 238 243 247 248 255 266 282 292 304 310 322 329 321 318 323 318
231 212 211 122 175 164 201 182 223 259 132 216 284 173 162 124 104 96 104 278 277 264 254 249 251 247 237 228 212 212 218 226 231 251 247 252 253 262 270 277 290 294 296 307 309 326 332 333 309
233 227 215 235 219 230 203 236 244 132 194 204 156 149 163 116 32 351 331 317 302 298 286 276 263 248 229 220 200 193 198 199 210 222 231 236 248 257 262 272 286 285 283 292 303 310 312 320 314
165 255 265 262 240 214 214 216 179 149 148 156 163 163 49 330 311 303 298 295 299 298 296 284 260 243 216 205 182 186 190 196 207 219 227 235 233 242 242 253 265 271 262 277 281 290 295 303 311
175 284 285 248 230 207 168 178 187 149 167 160 170 245 281 263 241 244 268 298 307 315 326 287 213 183 173 177 178 179 186 200 204 207 214 237 246 245 248 247 265 265 266 266 268 274 278 299 302
238 257 271 135 177 160 193 186 156 188 207 210 215 241 259 283 303 324 63 90 87 80 87 87 101 133 158 166 167 174 182 171 179 190 301 284 271 278 280 274 270 263 274 269 276 278 288 293 297
203 256 228 270 222 163 217 161 160 133 195 201 205 189 221 35 115 138 128 119 112 102 99 103 114 128 145 156 158 160 162 182 201 176 243 236 291 288 303 324 272 266 262 303 285 281 297 300 299
212 215 221 241 175 214 225 246 166 172 192 201 185 163 131 128 143 146 140 132 125 117 113 112 115 120 130 137 141 147 156 155 145 181 215 55 331 326 316 321 328 325 320 317 315 317 309 307 304
207 217 234 212 171 232 241 251 201 188 187 194 183 166 140 130 131 133 136 131 126 121 120 120 121 122 127 132 138 144 150 145 134 134 108 325 281 307 307 309 313 318 319 322 315 318 320 313 310
227 241 245 270 209 234 255 252 243 199 209 198 181 165 155 138 129 127 130 133 133 133 132 130 131 133 139 142 145 148 140 131 120 114 109 118 91 313 294 299 309 303 300 300 305 304 308 311 318
230 231 234 253 156 231 275 261 229 199 192 176 175 167 157 149 140 132 128 128 126 125 125 125 126 127 127 124 121 119 120 120 119 117 115 110 109 97 73 58 40 22 9 359 356 352 351 357 351
241 218 233 228 237 260 218 281 213 190 188 192 181 177 171 163 151 139 132 128 127 125 124 124 122 122 121 120 123 127 129 131 125 118 108 97 85 78 65 47 38 29 27 20 18 16 13 9 9
253 149 210 220 236 265 206 258 204 173 210 198 190 185 180 173 162 152 143 137 131 128 127 127 128 128 129 133 136 136 134 126 118 108 102 89 78 60 47 35 28 17 14 13 9 5 3 2 360
135 103 84 107 197 250 226 218 201 200 211 182 188 188 185 179 169 161 152 144 139 138 135 134 133 132 132 136 136 134 125 121 121 111 106 99 80 53 36 25 12 13 10 5 2 3 1 360 357
176 159 198 218 206 247 154 213 254 219 180 188 183 185 184 181 177 170 161 154 150 147 145 143 146 147 146 150 145 135 129 121 123 119 112 93 72 50 27 17 6 358 355 353 352 349 348 346 344
195 186 192 215 203 185 130 227 236 355 144 139 187 183 178 182 183 179 171 165 162 157 157 158 159 163 159 157 156 144 143 145 140 132 114 93 61 20 7 355 351 345 340 338 337 335 333 332 331
185 213 187 106 317 248 207 241 229 166 171 157 172 180 184 187 187 185 180 177 173 170 171 169 174 177 172 170 168 164 161 160 153 139 111 60 13 355 346 340 336 334 332 331 330 328 327 326 325
205 152 177 223 214 228 215 248 227 203 198 184 184 188 188 190 191 190 189 186 181 180 181 182 184 189 185 181 179 178 176 172 163 144 64 16 2 343 335 327 322 323 327 327 327 326 326 326 325
162 188 210 209 212 224 251 231 211 196 192 187 194 194 189 191 193 193 193 192 190 191 193 193 194 193 193 193 192 192 197 197 206 214 322 337 338 337 332 325 323 323 325 324 325 326 327 327 327
239 217 190 203 192 238 301 255 150 170 179 189 191 195 193 193 194 198 198 196 196 199 201 202 200 199 202 203 203 203 207 213 223 252 292 317 328 329 325 320 317 316 318 320 321 322 323 323 323
Wind_Speed_850mb
5 1 2 2 6 3 8 8 3 5 4 3 2 4 14 11 10 8 5 4 3 16 38 34 33 30 30 25 21 19 17 14 8 5 5 6 6 2 3 8 13 15 17 14 13 12 11 11 10
3 4 4 0 4 10 11 4 7 5 4 2 3 1 4 16 9 6 7 5 7 14 35 35 32 30 28 27 23 21 18 12 7 4 3 3 3 3 7 10 11 13 15 14 13 12 11 9 7
3 4 1 1 1 8 9 5 4 3 1 2 3 4 5 7 10 6 9 8 9 13 30 32 26 29 29 27 25 23 19 15 11 8 5 4 6 8 8 6 11 15 15 14 12 11 10 9 8
1 2 5 4 13 6 6 5 0 4 4 1 1 10 8 9 5 6 9 11 10 11 23 30 28 23 24 25 23 22 20 17 14 9 7 6 1 3 5 9 14 17 19 13 9 8 9 9 9
2 1 3 7 8 6 2 0 3 5 3 4 1 8 8 10 8 8 9 9 10 12 15 23 28 26 25 22 20 19 19 17 14 11 9 6 9 7 6 10 14 18 21 6 4 7 9 9 8
0 1 6 11 9 7 4 2 5 5 3 4 5 8 8 12 6 5 5 5 7 11 13 16 24 28 25 24 22 22 21 20 18 14 10 11 10 14 3 9 16 17 16 8 4 6 8 7 4
2 2 1 7 12 8 6 2 6 5 7 7 2 7 13 8 6 2 3 5 6 11 14 16 20 27 28 26 28 24 22 21 19 17 14 15 13 15 14 14 17 15 14 8 7 9 8 6 2
5 2 8 6 13 9 5 5 4 2 6 2 3 5 8 10 5 7 11 11 12 13 17 19 19 23 29 28 30 30 27 23 21 19 18 22 19 16 18 17 18 17 12 10 9 8 7 5 3
4 4 7 10 12 9 6 9 6 2 2 4 4 2 9 18 14 13 15 14 13 16 17 19 22 24 26 32 31 33 30 27 25 24 23 24 22 18 19 19 23 19 16 12 10 12 11 9 5
2 5 5 5 7 10 8 4 2 6 1 8 7 3 9 10 10 15 18 20 17 19 23 25 26 27 28 28 33 31 32 31 28 28 27 26 26 23 20 22 16 18 20 20 19 14 14 13 11
2 3 5 7 9 6 5 5 4 4 5 5 1 3 2 6 6 6 8 11 14 18 25 31 33 33 33 30 25 25 28 29 28 28 28 27 29 26 23 22 21 18 21 22 25 26 20 17 16
5 3 4 3 9 9 6 2 3 4 2 7 10 9 7 5 5 5 3 2 5 8 13 20 24 31 37 35 26 20 20 21 22 23 25 25 24 21 25 22 21 21 22 22 25 20 22 25 20
5 3 6 8 11 10 10 13 4 4 8 8 8 8 5 2 2 3 5 7 9 12 15 18 22 25 32 37 28 19 16 18 24 25 25 27 25 25 26 20 22 22 24 23 25 25 25 28 27
3 6 12 13 11 10 12 6 11 8 15 11 9 4 1 4 5 7 7 9 12 15 16 16 16 20 25 35 32 28 25 21 18 19 24 20 30 29 25 24 20 20 22 21 22 24 25 25 28
1 9 13 16 5 9 16 8 13 12 14 8 4 2 4 5 5 7 6 5 5 4 4 3 6 15 29 40 39 30 23 16 11 8 8 18 21 19 11 12 19 20 26 31 26 26 22 29 33
4 5 9 6 7 6 15 8 15 7 12 5 3 2 4 6 6 4 3 7 9 9 9 12 14 17 30 37 36 30 23 16 10 4 4 8 12 20 24 25 28 29 28 25 14 21 23 27 29
6 12 12 6 4 5 14 4 15 5 11 7 3 1 2 0 1 6 11 14 16 18 22 23 26 30 33 35 34 28 20 14 10 5 3 3 5 8 9 9 13 10 5 10 17 17 22 26 31
14 12 11 16 7 8 12 17 16 8 11 10 8 6 5 6 10 15 19 21 25 30 36 38 39 41 37 37 35 32 25 18 13 6 3 3 7 9 9 13 16 17 18 20 18 24 28 31 34
5 10 15 7 5 9 24 26 22 18 14 16 14 12 11 12 17 20 23 26 31 34 38 44 43 44 39 37 31 28 25 20 13 4 2 1 6 5 11 15 14 15 17 20 25 26 31 37 40
16 20 27 12 7 9 20 29 20 20 15 16 19 19 19 22 27 31 34 36 37 39 40 41 39 39 34 31 28 25 21 22 22 21 15 9 2 3 7 7 7 9 13 16 18 20 20 24 26
27 30 23 20 5 9 11 28 26 8 11 15 18 21 22 25 34 40 44 47 49 48 48 47 47 45 45 43 42 40 38 34 30 26 22 18 14 9 8 8 9 9 9 8 10 11 13 15 19
33 26 21 16 9 19 6 13 9 16 18 23 28 30 31 32 35 40 45 50 51 49 47 46 46 43 43 39 36 32 31 32 31 26 23 19 17 14 13 14 14 14 14 15 18 21 22 23 25
11 10 19 14 21 11 17 12 8 12 24 26 41 42 41 41 45 47 49 50 47 43 40 38 36 35 34 34 32 30 29 29 28 24 18 14 11 10 11 11 11 14 17 21 21 21 23 25 26
27 14 10 6 5 17 30 26 16 15 20 35 47 48 46 43 45 47 48 46 43 41 37 34 30 31 31 29 28 23 22 24 22 19 13 12 10 9 10 12 15 16 17 19 21 23 23 24 25
13 20 8 11 12 15 6 19 24 16 16 30 55 63 56 51 51 52 50 47 42 38 35 31 28 28 28 24 23 21 20 22 19 15 12 10 9 8 10 12 14 18 20 20 22 24 26 28 29
37 36 12 14 12 6 3 16 10 2 16 9 47 57 56 53 56 55 51 46 41 37 32 29 27 26 25 23 21 22 19 17 13 12 11 8 8 10 13 14 16 18 20 23 25 28 30 32 34
19 22 9 9 1 4 11 10 9 11 12 18 40 54 57 58 62 62 57 52 45 39 34 30 27 25 26 25 23 21 19 14 10 9 6 5 7 9 13 17 20 21 23 25 28 31 33 36 39
13 26 11 11 10 12 10 12 16 22 30 26 39 60 62 63 67 63 61 55 47 42 39 36 34 30 30 30 25 21 16 12 8 3 3 5 9 13 16 20 23 26 29 33 34 37 40 42 45
12 15 11 7 8 8 7 11 14 26 37 40 49 63 70 68 70 72 67 58 49 47 44 41 40 38 34 31 27 21 17 13 9 4 2 7 11 16 21 25 28 32 34 38 40 44 48 52 55
25 18 28 15 14 10 5 12 8 9 20 40 44 55 63 67 75 77 72 66 59 54 50 48 45 41 38 34 31 26 21 16 10 7 6 10 16 21 26 31 33 34 37 40 45 48 52 57 61
Wind_Direction_850mb
332 350 119 91 210 179 114 106 352 146 167 59 68 343 47 33 17 46 11 119 59 184 187 186 174 182 177 183 183 183 177 172 166 134 111 112 124 160 28 5 0 9 20 23 26 26 33 30 36
52 95 80 155 217 154 113 105 131 77 63 98 115 100 84 70 46 64 51 79 83 163 184 188 179 180 178 184 187 188 193 204 209 202 180 160 165 266 320 340 351 0 4 3 5 5 9 10 8
91 93 229 95 117 120 127 147 97 91 128 216 149 57 42 46 40 55 45 93 98 149 181 191 193 181 179 187 191 197 204 209 209 211 216 228 250 272 295 340 348 347 349 345 344 345 349 347 342
77 27 67 251 120 98 88 101 161 163 145 115 135 111 77 50 62 52 75 90 98 141 176 190 198 190 186 196 200 203 208 210 208 208 232 259 296 310 307 331 339 338 333 322 321 329 335 342 335
53 185 159 133 118 119 181 236 238 175 131 114 323 94 83 32 86 92 103 95 101 141 166 190 200 204 201 204 211 212 214 217 219 224 242 236 262 245 287 332 338 338 344 337 322 328 337 348 337
265 302 205 185 154 156 183 294 218 169 97 108 110 121 87 65 99 102 117 124 116 148 163 180 199 207 212 202 211 218 225 228 227 234 241 217 275 330 329 339 338 346 1 15 3 335 339 344 339
87 253 148 146 157 176 149 248 203 119 141 100 93 157 142 46 23 265 210 194 171 165 173 180 192 206 214 211 207 222 229 232 240 237 234 220 251 294 320 325 329 327 350 8 351 342 346 336 326
99 102 147 177 186 166 134 181 125 61 99 84 98 153 168 264 331 252 230 210 205 193 187 190 198 204 211 218 216 214 227 233 239 249 241 222 239 276 301 306 311 305 313 353 354 348 336 328 300
99 209 186 181 177 155 158 187 159 236 204 66 71 154 276 300 289 247 228 219 217 218 216 216 213 208 214 213 223 218 219 228 235 243 245 239 245 271 291 287 299 287 286 307 336 343 334 322 292
228 245 202 151 161 163 167 229 87 207 282 153 132 3 318 303 258 228 217 216 229 236 236 234 234 231 220 218 218 218 222 226 233 243 246 247 248 260 265 286 308 321 325 327 322 315 332 329 313
153 262 164 185 181 165 201 262 161 229 185 73 346 269 159 90 118 165 195 222 238 244 247 249 249 244 236 221 219 220 220 228 237 238 243 247 248 255 266 282 292 304 310 322 329 321 318 323 318
231 212 211 122 175 164 201 182 223 259 132 216 284 173 162 124 104 96 104 278 277 264 254 249 251 247 237 228 212 212 218 226 231 251 247 252 253 262 270 277 290 294 296 307 309 326 332 333 309
233 227 215 235 219 230 203 236 244 132 194 204 156 149 163 116 32 351 331 317 302 298 286 276 263 248 229 220 200 193 198 199 210 222 231 236 248 257 262 272 286 285 283 292 303 310 312 320 314
165 255 265 262 240 214 214 216 179 149 148 156 163 163 49 330 311 303 298 295 299 298 296 284 260 243 216 205 182 186 190 196 207 219 227 235 233 242 242 253 265 271 262 277 281 290 295 303 311
175 284 285 248 230 207 168 178 187 149 167 160 170 245 281 263 241 244 268 298 307 315 326 287 213 183 173 177 178 179 186 200 204 207 214 237 246 245 248 247 265 265 266 266 268 274 278 299 302
238 257 271 135 177 160 193 186 156 188 207 210 215 241 259 283 303 324 63 90 87 80 87 87 101 133 158 166 167 174 182 171 179 190 301 284 271 278 280 274 270 263 274 269 276 278 288 293 297
203 256 228 270 222 163 217 161 160 133 195 201 205 189 221 35 115 138 128 119 112 102 99 103 114 128 145 156 158 160 162 182 201 176 243 236 291 288 303 324 272 266 262 303 285 281 297 300 299
212 215 221 241 175 214 225 246 166 172 192 201 185 163 131 128 143 146 140 132 125 117 113 112 115 120 130 137 141 147 156 155 145 181 215 55 331 326 316 321 328 325 320 317 315 317 309 307 304
207 217 234 212 171 232 241 251 201 188 187 194 183 166 140 130 131 133 136 131 126 121 120 120 121 122 127 132 138 144 150 145 134 134 108 325 281 307 307 309 313 318 319 322 315 318 320 313 310
227 241 245 270 209 234 255 252 243 199 209 198 181 165 155 138 129 127 130 133 133 133 132 130 131 133 139 142 145 148 140 131 120 114 109 118 91 313 294 299 309 303 300 300 305 304 308 311 318
230 231 234 253 156 231 275 261 229 199 192 176 175 167 157 149 140 132 128 128 126 125 125 125 126 127 127 124 121 119 120 120 119 117 115 110 109 97 73 58 40 22 9 359 356 352 351 357 351
241 218 233 228 237 260 218 281 213 190 188 192 181 177 171 163 151 139 132 128 127 125 124 124 122 122 121 120 123 127 129 131 125 118 108 97 85 78 65 47 38 29 27 20 18 16 13 9 9
253 149 210 220 236 265 206 258 204 173 210 198 190 185 180 173 162 152 143 137 131 128 127 127 128 128 129 133 136 136 134 126 118 108 102 89 78 60 47 35 28 17 14 13 9 5 3 2 360
135 103 84 107 197 250 226 218 201 200 211 182 188 188 185 179 169 161 152 144 139 138 135 134 133 132 132 136 136 134 125 121 121 111 106 99 80 53 36 25 12 13 10 5 2 3 1 360 357
176 159 198 218 206 247 154 213 254 219 180 188 183 185 184 181 177 170 161 154 150 147 145 143 146 147 146 150 145 135 129 121 123 119 112 93 72 50 27 17 6 358 355 353 352 349 348 346 344
195 186 192 215 203 185 130 227 236 355 144 139 187 183 178 182 183 179 171 165 162 157 157 158 159 163 159 157 156 144 143 145 140 132 114 93 61 20 7 355 351 345 340 338 337 335 333 332 331
185 213 187 106 317 248 207 241 229 166 171 157 172 180 184 187 187 185 180 177 173 170 171 169 174 177 172 170 168 164 161 160 153 139 111 60 13 355 346 340 336 334 332 331 330 328 327 326 325
205 152 177 223 214 228 215 248 227 203 198 184 184 188 188 190 191 190 189 186 181 180 181 182 184 189 185 181 179 178 176 172 163 144 64 16 2 343 335 327 322 323 327 327 327 326 326 326 325
162 188 210 209 212 224 251 231 211 196 192 187 194 194 189 191 193 193 193 192 190 191 193 193 194 193 193 193 192 192 197 197 206 214 322 337 338 337 332 325 323 323 325 324 325 326 327 327 327
239 217 190 203 192 238 301 255 150 170 179 189 191 195 193 193 194 198 198 196 196 199 201 202 200 199 202 203 203 203 207 213 223 252 292 317 328 329 325 320 317 316 318 320 321 322 323 323 323